LGX74P GMMI-LPMA

Flight info

Callsign LGX74P
Flight time 1h 22m
Altitude 36000
Route ROLRO DCT TOVRA DCT DIMSA DCT LEPRU DCT EKNOT
Aircraft A320/M-SDE3FGHIRWY/LB1

Departure

Time 2026-04-26 13:27
Airport Essaouira-Mogador Airport (GMMI)

Arrival

Time 2026-04-26 14:50
Airport Cristiano Ronaldo International Airport (LPMA)
Time Latitude Longitude Altitude Speed Heading
2026-04-26 13:13 31.40331 -9.68722 357 ft 0 kts 79°
2026-04-26 13:22 31.40333 -9.68709 356 ft 6 kts 78°
2026-04-26 13:22 31.40303 -9.68662 358 ft 8 kts 155°
2026-04-26 13:22 31.40240 -9.68633 363 ft 12 kts 159°
2026-04-26 13:22 31.40171 -9.68602 360 ft 10 kts 159°
2026-04-26 13:23 31.40113 -9.68568 367 ft 8 kts 141°
2026-04-26 13:23 31.40091 -9.68523 363 ft 5 kts 106°
2026-04-26 13:23 31.40083 -9.68490 364 ft 3 kts 104°
2026-04-26 13:23 31.40079 -9.68472 366 ft 2 kts 104°
2026-04-26 13:24 31.40070 -9.68431 364 ft 12 kts 104°
2026-04-26 13:24 31.40034 -9.68352 366 ft 12 kts 142°
2026-04-26 13:24 31.39967 -9.68319 374 ft 11 kts 159°
2026-04-26 13:24 31.39853 -9.68266 375 ft 18 kts 159°
2026-04-26 13:25 31.39750 -9.68221 380 ft 13 kts 159°
2026-04-26 13:25 31.39628 -9.68165 385 ft 33 kts 158°
2026-04-26 13:25 31.39412 -9.68066 392 ft 32 kts 158°
2026-04-26 13:25 31.39223 -9.67978 398 ft 27 kts 158°
2026-04-26 13:26 31.39065 -9.67909 404 ft 22 kts 160°
2026-04-26 13:26 31.38937 -9.67858 409 ft 17 kts 170°
2026-04-26 13:26 31.38839 -9.67843 415 ft 12 kts 121°
2026-04-26 13:26 31.38887 -9.67822 414 ft 12 kts 334°
2026-04-26 13:27 31.39122 -9.67941 404 ft 72 kts 340°
2026-04-26 13:27 31.39799 -9.68233 380 ft 133 kts 341°
2026-04-26 13:27 31.40733 -9.68612 906 ft 142 kts 339°
2026-04-26 13:27 31.41646 -9.69038 1642 ft 141 kts 343°
2026-04-26 13:28 31.42542 -9.69513 2227 ft 148 kts 332°
2026-04-26 13:28 31.43186 -9.70619 2511 ft 188 kts 290°
2026-04-26 13:28 31.43468 -9.72218 2843 ft 212 kts 287°
2026-04-26 13:28 31.43797 -9.74005 3205 ft 237 kts 285°
2026-04-26 13:29 31.44172 -9.75989 3635 ft 262 kts 286°
2026-04-26 13:29 31.44444 -9.77409 3974 ft 276 kts 284°
2026-04-26 13:29 31.45006 -9.80365 5240 ft 279 kts 282°
2026-04-26 13:29 31.45425 -9.82584 6236 ft 279 kts 279°
2026-04-26 13:30 31.45847 -9.84813 7140 ft 283 kts 280°
2026-04-26 13:30 31.46274 -9.87048 7987 ft 287 kts 278°
2026-04-26 13:30 31.46716 -9.89339 8887 ft 290 kts 280°
2026-04-26 13:30 31.47163 -9.91651 9795 ft 293 kts 279°
2026-04-26 13:31 31.47620 -9.94017 10385 ft 307 kts 278°
2026-04-26 13:31 31.48103 -9.96555 10666 ft 331 kts 278°
2026-04-26 13:31 31.48618 -9.99282 10891 ft 355 kts 280°
2026-04-26 13:31 31.49170 -10.02181 11196 ft 372 kts 279°
2026-04-26 13:32 31.49744 -10.05164 11838 ft 379 kts 279°
2026-04-26 13:32 31.50328 -10.08191 12556 ft 383 kts 279°
2026-04-26 13:32 31.50918 -10.11254 13262 ft 387 kts 281°
2026-04-26 13:32 31.51514 -10.14351 13930 ft 392 kts 281°
2026-04-26 13:33 31.52113 -10.17481 14545 ft 395 kts 281°
2026-04-26 13:33 31.52714 -10.20641 15153 ft 399 kts 281°
2026-04-26 13:33 31.53315 -10.23823 15781 ft 402 kts 281°
2026-04-26 13:33 31.53919 -10.27034 16357 ft 405 kts 281°
2026-04-26 13:34 31.54530 -10.30276 16937 ft 409 kts 281°
2026-04-26 13:34 31.55149 -10.33540 17511 ft 412 kts 282°
2026-04-26 13:34 31.55775 -10.36839 18076 ft 416 kts 282°
2026-04-26 13:34 31.56193 -10.39036 18404 ft 418 kts 282°
2026-04-26 13:35 31.57041 -10.43511 19076 ft 422 kts 282°
2026-04-26 13:35 31.57674 -10.46876 19576 ft 424 kts 281°
2026-04-26 13:35 31.58309 -10.50269 20074 ft 427 kts 281°
2026-04-26 13:35 31.58944 -10.53682 20563 ft 429 kts 281°
2026-04-26 13:36 31.59583 -10.57110 21045 ft 431 kts 281°
2026-04-26 13:36 31.60226 -10.60554 21547 ft 433 kts 281°
2026-04-26 13:36 31.60864 -10.63964 22025 ft 435 kts 281°
2026-04-26 13:36 31.61517 -10.67442 22456 ft 438 kts 281°
2026-04-26 13:37 31.62170 -10.70942 22882 ft 440 kts 281°
2026-04-26 13:37 31.62821 -10.74464 23291 ft 444 kts 281°
2026-04-26 13:37 31.63476 -10.78015 23662 ft 447 kts 280°
2026-04-26 13:37 31.64136 -10.81584 24031 ft 449 kts 281°
2026-04-26 13:38 31.64796 -10.85176 24386 ft 451 kts 280°
2026-04-26 13:38 31.65457 -10.88775 24752 ft 453 kts 281°
2026-04-26 13:38 31.66120 -10.92394 25094 ft 454 kts 280°
2026-04-26 13:38 31.66793 -10.96024 25454 ft 455 kts 282°
2026-04-26 13:39 31.67697 -10.99596 25794 ft 457 kts 286°
2026-04-26 13:39 31.68673 -11.03149 26156 ft 458 kts 286°
2026-04-26 13:39 31.69654 -11.06712 26517 ft 459 kts 286°
2026-04-26 13:39 31.70637 -11.10285 26829 ft 461 kts 287°
2026-04-26 13:40 31.71622 -11.13879 27119 ft 463 kts 286°
2026-04-26 13:40 31.72607 -11.17485 27421 ft 465 kts 287°
2026-04-26 13:40 31.73593 -11.21113 27687 ft 467 kts 287°
2026-04-26 13:40 31.74577 -11.24741 28139 ft 465 kts 285°
2026-04-26 13:41 31.75539 -11.28356 28638 ft 462 kts 285°
2026-04-26 13:41 31.76389 -11.31982 29094 ft 459 kts 282°
2026-04-26 13:41 31.77125 -11.35597 29767 ft 452 kts 281°
2026-04-26 13:41 31.77794 -11.39187 30279 ft 448 kts 281°
2026-04-26 13:42 31.78440 -11.42769 30663 ft 447 kts 281°
2026-04-26 13:42 31.79091 -11.46337 30969 ft 447 kts 281°
2026-04-26 13:42 31.79765 -11.49916 31277 ft 447 kts 281°
2026-04-26 13:42 31.80457 -11.53473 31661 ft 446 kts 281°
2026-04-26 13:43 31.81158 -11.57021 32035 ft 444 kts 281°
2026-04-26 13:43 31.81862 -11.60549 32455 ft 443 kts 282°
2026-04-26 13:43 31.82556 -11.64044 32646 ft 446 kts 282°
2026-04-26 13:43 31.83262 -11.67600 32941 ft 447 kts 282°
2026-04-26 13:44 31.83962 -11.71158 33243 ft 447 kts 282°
2026-04-26 13:44 31.84664 -11.74721 33573 ft 446 kts 281°
2026-04-26 13:44 31.85359 -11.78265 33974 ft 445 kts 282°
2026-04-26 13:44 31.86049 -11.81806 34295 ft 443 kts 281°
2026-04-26 13:45 31.86732 -11.85329 34666 ft 441 kts 281°
2026-04-26 13:45 31.87411 -11.88844 34895 ft 442 kts 281°
2026-04-26 13:45 31.88092 -11.92372 35185 ft 441 kts 281°
2026-04-26 13:45 31.88773 -11.95897 35393 ft 443 kts 281°
2026-04-26 13:46 31.89455 -11.99431 35644 ft 442 kts 280°
2026-04-26 13:46 31.90138 -12.02956 35920 ft 442 kts 281°
2026-04-26 13:46 31.90822 -12.06486 36003 ft 442 kts 280°
2026-04-26 13:47 31.92178 -12.13550 36007 ft 443 kts 280°
2026-04-26 13:47 31.93548 -12.20712 36012 ft 453 kts 281°
2026-04-26 13:48 31.94923 -12.27951 36010 ft 453 kts 281°
2026-04-26 13:48 31.96299 -12.35176 36013 ft 452 kts 280°
2026-04-26 13:49 31.97264 -12.42465 36016 ft 449 kts 269°
2026-04-26 13:49 31.97403 -12.49816 36019 ft 449 kts 269°
2026-04-26 13:50 31.97546 -12.57167 36016 ft 449 kts 270°
2026-04-26 13:50 31.97689 -12.64515 36021 ft 449 kts 269°
2026-04-26 13:51 31.97829 -12.71866 36031 ft 449 kts 269°
2026-04-26 13:51 31.97971 -12.79230 36026 ft 450 kts 269°
2026-04-26 13:52 31.98104 -12.86595 36028 ft 450 kts 269°
2026-04-26 13:52 31.98231 -12.93970 36023 ft 450 kts 269°
2026-04-26 13:53 31.98343 -13.01341 36028 ft 450 kts 269°
2026-04-26 13:53 31.98454 -13.08711 36030 ft 450 kts 269°
2026-04-26 13:54 31.98573 -13.16098 36039 ft 451 kts 269°
2026-04-26 13:54 31.98690 -13.23471 36042 ft 450 kts 269°
2026-04-26 13:55 31.98821 -13.33292 36042 ft 450 kts 269°
2026-04-26 13:56 31.98983 -13.45601 36039 ft 450 kts 269°
2026-04-26 13:56 31.99079 -13.52974 36049 ft 450 kts 269°
2026-04-26 13:57 31.99166 -13.60298 36047 ft 450 kts 269°
2026-04-26 13:57 31.99249 -13.67671 36055 ft 450 kts 269°
2026-04-26 13:58 31.99334 -13.75045 36050 ft 450 kts 269°
2026-04-26 13:58 31.99412 -13.82415 36057 ft 450 kts 268°
2026-04-26 13:59 31.99482 -13.89791 36063 ft 450 kts 269°
2026-04-26 13:59 31.99548 -13.97166 36068 ft 450 kts 269°
2026-04-26 14:00 31.99665 -14.11893 36065 ft 450 kts 268°
2026-04-26 14:01 31.99722 -14.19255 36066 ft 449 kts 269°
2026-04-26 14:01 31.99765 -14.25374 36070 ft 450 kts 268°
2026-04-26 14:02 31.99815 -14.33936 36068 ft 449 kts 268°
2026-04-26 14:02 31.99854 -14.41298 36071 ft 450 kts 269°
2026-04-26 14:03 31.99887 -14.47468 36072 ft 450 kts 269°
2026-04-26 14:03 31.99917 -14.54835 36077 ft 450 kts 268°
2026-04-26 14:04 31.99942 -14.62203 36086 ft 450 kts 268°
2026-04-26 14:04 31.99967 -14.69525 36082 ft 450 kts 268°
2026-04-26 14:05 31.99995 -14.76948 36082 ft 450 kts 268°
2026-04-26 14:05 32.00519 -14.84296 36083 ft 452 kts 276°
2026-04-26 14:06 32.01436 -14.91630 36074 ft 452 kts 276°
2026-04-26 14:06 32.02326 -14.98912 36091 ft 452 kts 276°
2026-04-26 14:07 32.03215 -15.06251 36089 ft 452 kts 276°
2026-04-26 14:07 32.04105 -15.13590 36091 ft 453 kts 276°
2026-04-26 14:08 32.05002 -15.20933 36085 ft 452 kts 276°
2026-04-26 14:08 32.05892 -15.28277 36086 ft 453 kts 276°
2026-04-26 14:09 32.06774 -15.35626 36090 ft 453 kts 276°
2026-04-26 14:09 32.07650 -15.42970 36097 ft 452 kts 276°
2026-04-26 14:10 32.08521 -15.50320 36100 ft 453 kts 276°
2026-04-26 14:10 32.09382 -15.57674 36106 ft 452 kts 275°
2026-04-26 14:11 32.10679 -15.68703 36103 ft 453 kts 276°
2026-04-26 14:11 32.11352 -15.72323 35990 ft 451 kts 287°
2026-04-26 14:11 32.12724 -15.75606 35186 ft 457 kts 303°
2026-04-26 14:12 32.14834 -15.78391 34034 ft 457 kts 314°
2026-04-26 14:12 32.17171 -15.80966 32407 ft 461 kts 315°
2026-04-26 14:12 32.19528 -15.83537 30788 ft 463 kts 315°
2026-04-26 14:12 32.21902 -15.86130 28932 ft 466 kts 315°
2026-04-26 14:13 32.26660 -15.91381 24885 ft 472 kts 316°
2026-04-26 14:13 32.29051 -15.94047 23007 ft 472 kts 316°
2026-04-26 14:13 32.31403 -15.96678 22083 ft 460 kts 316°
2026-04-26 14:14 32.33694 -15.99248 21440 ft 451 kts 317°
2026-04-26 14:14 32.35962 -16.01794 20558 ft 448 kts 317°
2026-04-26 14:14 32.38219 -16.04327 19701 ft 446 kts 317°
2026-04-26 14:14 32.40466 -16.06848 18865 ft 444 kts 318°
2026-04-26 14:15 32.42705 -16.09358 17983 ft 442 kts 318°
2026-04-26 14:15 32.44928 -16.11854 17170 ft 438 kts 317°
2026-04-26 14:15 32.47128 -16.14325 16398 ft 434 kts 318°
2026-04-26 14:15 32.49307 -16.16769 15639 ft 430 kts 318°
2026-04-26 14:16 32.51469 -16.19191 14917 ft 425 kts 318°
2026-04-26 14:16 32.53607 -16.21592 14207 ft 421 kts 317°
2026-04-26 14:16 32.55722 -16.23970 13471 ft 418 kts 319°
2026-04-26 14:16 32.57816 -16.26327 12794 ft 411 kts 319°
2026-04-26 14:17 32.59876 -16.28649 12117 ft 405 kts 318°
2026-04-26 14:17 32.61906 -16.30936 11499 ft 400 kts 319°
2026-04-26 14:17 32.63880 -16.33160 11338 ft 382 kts 319°
2026-04-26 14:17 32.65761 -16.35284 11211 ft 365 kts 318°
2026-04-26 14:18 32.67556 -16.37316 11100 ft 349 kts 318°
2026-04-26 14:18 32.69278 -16.39263 10972 ft 335 kts 318°
2026-04-26 14:18 32.70936 -16.41136 10854 ft 323 kts 318°
2026-04-26 14:18 32.72529 -16.42940 10733 ft 311 kts 319°
2026-04-26 14:19 32.74075 -16.44689 10528 ft 304 kts 319°
2026-04-26 14:19 32.75592 -16.46406 10441 ft 301 kts 320°
2026-04-26 14:19 32.77089 -16.48099 10327 ft 301 kts 320°
2026-04-26 14:19 32.78606 -16.49815 10204 ft 300 kts 318°
2026-04-26 14:20 32.80007 -16.51662 9936 ft 302 kts 313°
2026-04-26 14:20 32.81402 -16.53581 9356 ft 307 kts 314°
2026-04-26 14:20 32.82731 -16.55536 9138 ft 300 kts 303°
2026-04-26 14:20 32.83428 -16.57812 9016 ft 291 kts 278°
2026-04-26 14:21 32.83303 -16.60170 8768 ft 286 kts 254°
2026-04-26 14:21 32.82394 -16.62230 8445 ft 281 kts 225°
2026-04-26 14:21 32.80837 -16.63573 8024 ft 276 kts 200°
2026-04-26 14:21 32.79028 -16.64296 7655 ft 273 kts 193°
2026-04-26 14:22 32.77216 -16.64967 7307 ft 272 kts 195°
2026-04-26 14:22 32.75419 -16.65659 6940 ft 271 kts 195°
2026-04-26 14:22 32.73632 -16.66368 6597 ft 269 kts 195°
2026-04-26 14:22 32.71893 -16.67072 6219 ft 261 kts 195°
2026-04-26 14:23 32.70181 -16.67765 5678 ft 259 kts 195°
2026-04-26 14:23 32.68460 -16.68460 5055 ft 261 kts 196°
2026-04-26 14:23 32.66753 -16.69152 4515 ft 256 kts 197°
2026-04-26 14:23 32.65094 -16.69827 3853 ft 248 kts 198°
2026-04-26 14:24 32.63542 -16.70523 3489 ft 229 kts 208°
2026-04-26 14:24 32.62284 -16.71603 2953 ft 217 kts 228°
2026-04-26 14:24 32.61425 -16.72985 2484 ft 199 kts 244°
2026-04-26 14:24 32.60964 -16.74469 2262 ft 183 kts 261°
2026-04-26 14:25 32.60823 -16.75845 2166 ft 158 kts 268°
2026-04-26 14:25 32.60710 -16.77088 2185 ft 148 kts 266°
2026-04-26 14:25 32.60585 -16.78334 2449 ft 163 kts 267°
2026-04-26 14:25 32.60441 -16.79747 2687 ft 185 kts 266°
2026-04-26 14:26 32.60293 -16.81356 2913 ft 206 kts 266°
2026-04-26 14:26 32.60138 -16.83087 2992 ft 215 kts 267°
2026-04-26 14:26 32.59967 -16.84859 3008 ft 217 kts 265°
2026-04-26 14:26 32.59798 -16.86637 3010 ft 217 kts 266°
2026-04-26 14:27 32.59631 -16.88412 3011 ft 219 kts 266°
2026-04-26 14:27 32.59456 -16.90232 3012 ft 224 kts 266°
2026-04-26 14:27 32.59279 -16.92067 3009 ft 224 kts 266°
2026-04-26 14:27 32.59105 -16.93900 3010 ft 224 kts 266°
2026-04-26 14:28 32.58928 -16.95734 3006 ft 225 kts 264°
2026-04-26 14:28 32.58309 -16.97425 3007 ft 228 kts 230°
2026-04-26 14:28 32.56997 -16.98455 3008 ft 230 kts 195°
2026-04-26 14:28 32.55422 -16.98471 3006 ft 228 kts 160°
2026-04-26 14:29 32.54117 -16.97472 3011 ft 223 kts 125°
2026-04-26 14:29 32.53520 -16.95830 3010 ft 217 kts 94°
2026-04-26 14:29 32.53439 -16.93952 3015 ft 241 kts 87°
2026-04-26 14:29 32.53446 -16.91938 3009 ft 246 kts 86°
2026-04-26 14:30 32.53460 -16.89902 3008 ft 247 kts 86°
2026-04-26 14:30 32.53481 -16.87861 3012 ft 248 kts 86°
2026-04-26 14:30 32.53506 -16.85828 3011 ft 246 kts 86°
2026-04-26 14:30 32.53521 -16.83799 3010 ft 245 kts 86°
2026-04-26 14:31 32.53523 -16.81781 3009 ft 244 kts 85°
2026-04-26 14:31 32.53517 -16.79779 3007 ft 243 kts 86°
2026-04-26 14:31 32.53516 -16.77767 3008 ft 244 kts 86°
2026-04-26 14:31 32.53503 -16.75789 3007 ft 242 kts 86°
2026-04-26 14:32 32.53488 -16.73800 3009 ft 242 kts 85°
2026-04-26 14:32 32.53477 -16.71802 3006 ft 243 kts 86°
2026-04-26 14:32 32.53468 -16.69800 3013 ft 243 kts 86°
2026-04-26 14:32 32.53453 -16.67806 3009 ft 242 kts 86°
2026-04-26 14:33 32.53426 -16.65815 3008 ft 242 kts 86°
2026-04-26 14:33 32.53407 -16.63820 3007 ft 242 kts 86°
2026-04-26 14:33 32.53385 -16.61827 3006 ft 242 kts 87°
2026-04-26 14:33 32.53362 -16.59834 3006 ft 242 kts 86°
2026-04-26 14:34 32.53347 -16.57839 3003 ft 242 kts 86°
2026-04-26 14:34 32.53427 -16.55854 3002 ft 239 kts 72°
2026-04-26 14:34 32.54206 -16.54180 3002 ft 231 kts 43°
2026-04-26 14:34 32.55427 -16.52950 3010 ft 232 kts 36°
2026-04-26 14:35 32.56700 -16.51773 3003 ft 231 kts 36°
2026-04-26 14:35 32.57980 -16.50622 3001 ft 231 kts 36°
2026-04-26 14:35 32.59263 -16.49469 3000 ft 232 kts 36°
2026-04-26 14:35 32.60552 -16.48313 3006 ft 233 kts 35°
2026-04-26 14:36 32.61849 -16.47145 3007 ft 234 kts 35°
2026-04-26 14:36 32.63132 -16.45978 3005 ft 232 kts 36°
2026-04-26 14:36 32.64407 -16.44820 3006 ft 235 kts 36°
2026-04-26 14:36 32.65703 -16.43654 3004 ft 232 kts 36°
2026-04-26 14:37 32.66982 -16.42492 3003 ft 231 kts 36°
2026-04-26 14:37 32.68259 -16.41334 3003 ft 232 kts 36°
2026-04-26 14:37 32.69531 -16.40179 3000 ft 225 kts 35°
2026-04-26 14:37 32.70729 -16.39083 3004 ft 212 kts 36°
2026-04-26 14:38 32.71961 -16.38151 3009 ft 210 kts 17°
2026-04-26 14:38 32.73394 -16.38049 3009 ft 210 kts 349°
2026-04-26 14:38 32.74683 -16.38819 3006 ft 210 kts 321°
2026-04-26 14:38 32.75302 -16.39738 3007 ft 213 kts 307°
2026-04-26 14:39 32.76334 -16.41715 3007 ft 212 kts 307°
2026-04-26 14:39 32.77094 -16.43186 3006 ft 206 kts 307°
2026-04-26 14:39 32.77840 -16.44623 3006 ft 203 kts 307°
2026-04-26 14:39 32.78582 -16.46043 3006 ft 201 kts 307°
2026-04-26 14:40 32.79319 -16.47452 3005 ft 200 kts 306°
2026-04-26 14:40 32.80052 -16.48857 3010 ft 200 kts 307°
2026-04-26 14:40 32.80782 -16.50260 3010 ft 199 kts 307°
2026-04-26 14:40 32.81513 -16.51665 3011 ft 200 kts 307°
2026-04-26 14:41 32.82244 -16.53068 3012 ft 200 kts 307°
2026-04-26 14:41 32.82981 -16.54480 3012 ft 201 kts 306°
2026-04-26 14:41 32.83719 -16.55893 3010 ft 202 kts 306°
2026-04-26 14:41 32.84432 -16.57345 3007 ft 206 kts 295°
2026-04-26 14:42 32.84607 -16.59044 3011 ft 213 kts 263°
2026-04-26 14:42 32.83982 -16.60642 3012 ft 218 kts 229°
2026-04-26 14:42 32.82865 -16.61883 2851 ft 222 kts 223°
2026-04-26 14:42 32.81600 -16.62959 2545 ft 226 kts 211°
2026-04-26 14:43 32.80156 -16.63745 2251 ft 230 kts 199°
2026-04-26 14:43 32.78646 -16.64347 2109 ft 228 kts 199°
2026-04-26 14:43 32.77135 -16.64956 2010 ft 229 kts 199°
2026-04-26 14:43 32.75647 -16.65556 2018 ft 223 kts 199°
2026-04-26 14:44 32.74183 -16.66147 2025 ft 223 kts 199°
2026-04-26 14:44 32.72701 -16.66748 2011 ft 226 kts 199°
2026-04-26 14:44 32.71243 -16.67341 2010 ft 223 kts 199°
2026-04-26 14:44 32.69774 -16.67938 2007 ft 223 kts 199°
2026-04-26 14:45 32.68301 -16.68534 2008 ft 223 kts 199°
2026-04-26 14:45 32.67309 -16.68934 2011 ft 223 kts 200°
2026-04-26 14:45 32.65465 -16.69677 2002 ft 198 kts 198°
2026-04-26 14:45 32.64200 -16.70188 2016 ft 184 kts 200°
2026-04-26 14:46 32.63080 -16.70842 2006 ft 178 kts 215°
2026-04-26 14:46 32.62142 -16.71786 2008 ft 175 kts 228°
2026-04-26 14:46 32.61440 -16.72944 2010 ft 174 kts 244°
2026-04-26 14:46 32.60995 -16.74263 2007 ft 171 kts 259°
2026-04-26 14:47 32.60832 -16.75648 2007 ft 170 kts 272°
2026-04-26 14:47 32.60931 -16.76968 2020 ft 151 kts 286°
2026-04-26 14:47 32.61236 -16.78111 2005 ft 142 kts 300°
2026-04-26 14:47 32.61774 -16.79061 1802 ft 137 kts 316°
2026-04-26 14:48 32.62495 -16.79766 1599 ft 133 kts 332°
2026-04-26 14:48 32.63333 -16.80206 1421 ft 130 kts 347°
2026-04-26 14:48 32.64222 -16.80361 1236 ft 130 kts
2026-04-26 14:48 32.65118 -16.80326 1121 ft 127 kts
2026-04-26 14:49 32.66007 -16.80237 956 ft 129 kts
2026-04-26 14:49 32.66852 -16.79943 713 ft 126 kts 19°
2026-04-26 14:49 32.67659 -16.79530 521 ft 125 kts 20°
2026-04-26 14:49 32.68403 -16.78985 401 ft 126 kts 37°
2026-04-26 14:50 32.69054 -16.78299 198 ft 124 kts 41°
2026-04-26 14:50 32.69580 -16.77690 176 ft 83 kts 43°
2026-04-26 14:50 32.69871 -16.77357 176 ft 35 kts 43°
2026-04-26 14:50 32.69953 -16.77207 176 ft 15 kts 117°
2026-04-26 14:51 32.69862 -16.77179 176 ft 13 kts 188°
2026-04-26 14:51 32.69795 -16.77234 176 ft 10 kts 228°
2026-04-26 14:51 32.69765 -16.77270 176 ft 9 kts 225°
2026-04-26 14:51 32.69740 -16.77301 176 ft 0 kts 225°
2026-04-26 14:52 32.69734 -16.77307 176 ft 5 kts 225°
2026-04-26 14:52 32.69699 -16.77350 176 ft 7 kts 226°
2026-04-26 14:53 32.69666 -16.77392 176 ft 7 kts 227°
2026-04-26 14:53 32.69639 -16.77426 176 ft 9 kts 227°
2026-04-26 14:53 32.69591 -16.77449 176 ft 7 kts 142°
2026-04-26 14:53 32.69556 -16.77409 176 ft 7 kts 141°
2026-04-26 14:54 32.69544 -16.77398 176 ft 0 kts 141°